Tracking 25734 objects as of 28-May-2022
HD Live streaming from Space Station
objects crossing your sky now

OPS 9332 (IDSCS 17)

Track OPS 9332 (IDSCS 17) now!
OPS 9332 (IDSCS 17) is classified as:


NORAD ID: 2863
Int'l Code: 1967-066B
Perigee: 33,044.5 km
Apogee: 33,544.4 km
Inclination: 1.2 °
Period: 1,310.3 minutes
Semi major axis: 39665 km
RCS: 0.6309 m2 (medium)
Launch date: July 1, 1967
Source: United States (US)
Launch site: AIR FORCE EASTERN TEST RANGE (AFETR)
aabbcc
Your satellite tracking list
Your tracking list is empty




NASA's NSSDC Master Catalog

Two Line Element Set (TLE):
1 02863U 67066B   22146.18347656 -.00000062  00000-0  00000-0 0  9998
2 02863   1.1678 236.3707 0063017  73.5039 327.7547  1.09896782108426
Source of the keplerian elements: AFSPC